Location: Bois de la Silve
(44.4667°N, 6.7833°E)
Time: 08:16:43
(UTC+00:00)

Cosmos 1544 - Pass Details

Date: 14 July 2020
Orbit: 473 x 490 km, 82.5° (Epoch: 14 August)

Event Time Altitude Azimuth Distance (km) Brightness Sun altitude
Exits shadow 03:00:06 - 190° (S) 1,770 5.4 -9.5°
Reaches altitude 10° 03:00:25 10° 190° (S) 1,636 5.3 -9.5°
Maximum altitude 03:03:59 82° 277° (W) 485 3.0 -9.0°
Drops below altitude 10° 03:07:36 10° 7° (N) 1,651 6.5 -8.5°
Sets 03:09:42 0° 8° (N) 2,535 7.6 -8.3°
